Theta_e
319 321 322 326 326 325 324 323 321 321 320 319 318 316 314 313 313 313 314 314 315 315 316 316 316 317 305 294 293 306 315 314 307 307 302 298 295 293 288 289 291 288 289 291 292 292 291
318 319 320 323 326 325 324 324 323 322 321 320 319 317 315 314 313 313 313 314 314 315 316 316 316 316 299 287 303 304 305 305 306 303 299 299 295 295 291 290 289 289 291 291 291 290 291
315 316 318 320 321 325 323 323 323 323 322 321 319 318 317 315 314 314 314 313 314 314 315 316 315 307 296 292 301 302 304 302 303 301 298 299 299 294 293 288 293 291 287 288 287 288 289
312 314 315 317 318 321 323 323 323 323 322 320 320 318 317 317 315 315 314 314 314 314 315 314 313 300 289 302 301 301 303 301 302 303 301 300 299 296 293 292 289 286 285 282 286 289 289
308 312 312 313 316 317 318 322 323 322 321 320 319 318 318 317 316 315 314 314 315 315 312 313 300 296 289 306 298 300 302 299 301 300 299 302 298 292 291 285 281 283 279 281 286 289 288
306 308 311 312 313 314 315 317 320 322 321 320 319 318 318 317 316 315 315 315 314 311 306 305 300 290 294 292 298 300 300 302 299 297 296 295 292 287 286 281 278 279 280 283 283 285 286
305 305 308 309 310 311 312 314 315 317 321 320 319 318 318 317 317 315 309 303 297 295 296 291 291 290 293 298 300 297 300 299 299 294 286 291 286 282 284 285 284 283 282 281 283 285 284
304 304 305 307 307 308 310 311 313 314 315 318 319 319 318 318 317 314 306 298 298 296 289 295 294 293 296 298 292 295 300 294 292 287 289 287 284 287 287 287 286 284 281 282 284 285 284
305 304 304 304 306 306 307 309 310 311 312 313 315 318 318 318 316 309 303 301 304 302 291 292 295 294 294 296 292 292 297 293 290 287 287 284 285 289 288 285 285 283 282 281 282 285 284
305 304 303 303 304 304 305 306 308 309 310 311 313 314 318 316 309 307 303 306 306 300 284 290 291 293 295 295 289 297 298 293 289 286 287 286 289 288 285 285 285 281 284 283 283 281 279
305 303 304 303 303 302 303 304 306 307 308 308 310 312 316 316 307 302 304 305 305 301 278 289 288 296 294 290 290 292 297 292 287 286 287 284 285 284 284 285 285 283 286 284 282 281 280
305 304 304 303 303 303 302 303 304 305 306 307 308 309 314 309 307 304 305 304 302 286 277 282 287 288 288 289 290 292 293 294 292 287 285 283 288 287 285 286 286 287 286 285 283 281 274
305 304 304 303 303 302 302 302 303 303 304 304 306 308 312 309 303 307 304 299 284 280 285 281 282 287 286 286 287 289 287 287 284 279 277 283 283 286 287 283 286 284 280 271 273 271 275
306 305 304 304 303 302 302 301 301 303 303 303 305 307 311 309 308 307 301 290 279 276 279 286 286 285 283 286 286 287 284 283 286 283 278 279 275 283 286 283 282 282 280 276 271 273 276
306 306 304 304 303 303 302 301 300 301 301 302 304 304 306 307 307 306 295 282 280 282 286 285 285 281 281 284 284 285 283 281 285 286 282 278 278 284 285 285 283 281 278 282 275 269 274
305 306 305 304 304 303 302 301 300 300 300 301 293 303 304 307 307 301 288 287 281 287 289 287 281 283 278 281 282 282 282 285 285 288 290 284 276 281 284 285 283 281 282 277 276 271 271
305 305 305 304 303 303 302 302 300 300 301 301 294 296 303 307 304 294 284 285 286 291 290 286 283 283 283 282 282 281 283 285 287 286 289 284 282 278 282 281 282 282 278 279 280 279 274
303 305 305 305 303 303 302 302 300 300 301 297 293 286 303 305 288 285 285 287 292 291 293 290 287 286 285 285 282 283 282 284 286 288 285 287 283 275 278 281 284 282 281 281 276 273 274
302 303 305 305 304 303 302 301 300 300 301 289 289 289 301 301 284 284 286 289 291 290 288 289 289 289 289 286 282 283 285 286 287 287 285 287 278 271 276 279 281 281 282 282 282 279 273
300 302 303 305 304 304 303 302 300 300 302 292 287 283 288 294 290 287 284 285 285 292 292 290 288 290 288 285 288 284 285 287 287 286 293 291 279 277 276 279 281 277 280 282 282 273 276
299 300 301 304 305 304 303 302 301 300 301 295 288 276 280 283 286 285 286 285 285 285 289 291 289 289 287 283 283 284 286 285 287 289 286 287 277 276 277 281 281 282 281 281 278 281 277
298 298 299 300 304 304 304 303 302 300 300 293 283 282 284 274 286 287 287 282 285 287 286 286 285 288 288 286 286 283 287 286 285 285 283 285 277 276 273 277 280 279 281 281 279 277 279
297 297 299 300 303 304 303 303 302 301 299 290 290 289 285 282 282 284 284 285 284 285 286 288 289 287 286 289 291 292 294 292 291 286 283 285 281 277 277 274 277 277 281 282 282 281 281
296 297 297 300 298 304 303 302 302 302 299 293 292 289 285 273 279 284 284 287 283 285 283 285 288 287 289 293 293 292 293 291 291 290 287 282 282 282 274 278 271 282 284 284 284 285 285
295 296 297 297 299 303 303 302 301 301 300 290 294 289 285 270 281 281 283 284 284 284 286 284 285 290 293 290 282 277 280 283 285 288 287 287 284 279 275 271 279 284 283 284 283 285 287
295 296 296 297 299 302 302 302 301 301 300 292 291 294 286 278 277 284 283 283 281 282 280 281 286 291 289 285 280 271 269 270 276 278 289 287 287 282 279 271 269 280 286 287 287 281 291
295 296 296 296 298 300 302 302 302 301 300 294 292 294 289 282 281 283 279 281 283 282 279 280 285 286 286 283 278 274 271 275 272 277 279 280 282 279 279 278 278 284 285 286 279 283 290
295 294 295 296 297 294 301 302 301 301 300 295 291 293 289 281 280 285 286 282 282 282 278 282 281 283 284 280 278 271 267 274 272 277 278 279 279 278 280 277 274 287 285 284 287 288 290
294 294 296 296 297 293 301 301 301 301 300 296 288 293 294 286 285 289 286 286 286 287 283 285 282 282 284 280 276 275 270 275 271 267 279 275 282 278 282 281 286 286 287 289 290 290 290
Wind_Speed
17 17 18 11 17 16 15 14 13 12 11 9 8 7 6 6 5 6 5 7 7 8 9 9 9 8 2 1 7 3 3 1 2 3 3 3 4 4 3 3 1 3 3 2 4 3 5
18 18 19 20 18 18 17 15 14 13 12 10 9 8 7 6 7 6 6 7 8 9 9 10 8 6 1 4 2 5 4 3 2 2 3 2 4 3 1 2 3 2 4 7 6 4 4
17 18 18 20 20 18 16 16 15 14 12 11 10 8 8 7 7 7 8 7 8 9 10 8 5 1 1 8 2 2 4 2 2 2 3 1 1 2 1 2 2 3 6 7 4 3 4
16 16 17 18 18 13 14 17 16 14 13 11 11 9 9 8 6 7 9 9 9 9 9 6 1 1 6 1 1 1 1 1 0 1 1 1 1 3 2 1 4 3 2 5 1 5 1
14 16 14 16 16 16 15 7 17 15 14 13 12 10 10 8 6 6 8 9 9 9 3 2 1 2 7 1 2 2 3 3 3 2 1 0 3 2 3 4 5 4 4 4 7 6 1
13 13 13 14 15 14 15 16 8 16 14 13 12 11 10 8 7 6 8 10 6 3 0 1 0 2 1 3 2 3 1 5 3 3 3 3 5 3 3 4 6 5 4 4 5 1 2
11 13 11 10 13 13 13 13 13 14 15 13 13 13 11 9 6 4 3 2 3 2 1 9 5 2 2 1 0 1 1 4 3 4 4 1 3 9 12 7 2 3 2 4 4 1 3
11 11 14 11 11 11 12 12 12 12 11 6 15 13 12 10 7 3 2 2 2 1 6 8 3 4 2 5 3 3 4 5 4 5 5 3 9 6 4 4 4 3 3 6 5 0 1
13 13 12 13 10 9 10 11 10 10 11 10 7 12 12 11 9 3 3 4 2 1 3 6 6 5 4 7 5 7 9 4 3 5 6 6 2 3 6 4 5 4 5 4 5 5 2
16 12 13 13 11 10 9 11 8 8 8 9 9 5 12 14 5 4 3 1 4 2 4 6 3 2 3 4 3 1 6 4 3 10 8 6 3 4 3 3 6 3 3 2 1 3 4
18 14 13 13 12 11 9 9 9 7 8 9 9 7 12 16 7 4 3 5 4 2 3 1 2 0 2 4 3 4 1 2 6 6 7 7 4 4 3 4 6 4 2 3 2 3 3
19 14 15 13 13 11 9 9 9 6 7 8 9 9 10 2 1 3 5 6 2 5 10 1 1 2 5 2 2 2 3 2 3 4 2 1 0 1 1 3 2 6 5 6 4 2 3
21 18 18 15 15 12 11 9 8 8 8 9 10 10 6 4 5 6 5 5 5 5 3 3 3 3 2 3 2 2 5 5 6 5 2 3 2 0 2 5 4 3 6 3 6 4 7
24 24 20 18 17 15 13 12 12 9 8 12 12 11 5 2 5 8 3 6 5 4 6 2 4 4 4 5 3 4 5 5 4 4 4 6 6 7 3 2 6 5 6 7 7 4 4
26 24 22 19 18 15 13 11 11 11 10 10 13 2 2 3 5 3 6 4 9 8 6 9 3 4 4 4 5 4 6 5 8 11 7 5 5 2 3 2 2 5 5 2 8 2 4
27 25 23 23 19 18 15 13 11 11 11 7 2 2 3 7 6 2 4 10 6 5 4 2 7 6 7 5 5 6 7 4 5 11 2 4 2 3 2 0 2 2 1 3 4 2 4
26 26 26 24 22 20 18 16 13 12 11 6 1 3 3 9 4 3 7 7 5 5 1 5 6 5 5 6 6 5 5 3 3 1 6 5 4 3 2 6 6 3 1 0 1 4 6
25 28 27 26 25 23 20 17 14 13 11 5 3 3 4 9 4 2 5 7 4 3 3 3 3 1 5 7 5 3 5 3 4 3 8 5 4 4 7 1 3 2 4 7 5 6 2
27 27 27 27 27 25 24 20 18 16 15 4 3 2 2 2 9 6 2 4 7 4 5 5 4 2 1 4 1 5 4 1 3 1 5 6 2 2 6 4 3 5 5 3 3 3 7
28 30 27 29 29 27 26 26 22 19 17 4 2 4 3 6 3 9 8 6 7 4 4 5 5 5 5 1 4 3 2 1 1 2 5 4 3 7 6 2 4 4 5 5 3 3 4
29 27 26 30 30 29 28 28 25 21 20 5 3 6 5 10 12 8 11 10 8 7 4 7 4 5 6 5 1 3 1 2 1 2 2 4 4 3 3 4 3 4 6 7 10 12 7
28 30 27 23 31 31 30 30 29 26 22 5 5 4 1 1 12 17 15 10 12 8 9 5 7 12 9 7 5 8 4 1 4 3 3 1 3 3 4 3 3 7 10 8 9 3 10
26 26 27 26 27 32 32 30 30 28 24 5 3 2 3 4 6 14 16 14 13 8 2 5 8 7 6 8 4 6 5 4 3 3 3 1 3 3 5 3 2 12 13 17 9 8 9
28 29 23 24 26 33 32 31 33 31 27 2 2 3 3 3 5 17 11 19 11 13 7 2 6 8 3 7 6 4 1 5 5 6 4 4 4 2 3 2 3 7 2 3 14 10 15
28 28 24 25 28 36 35 34 34 32 29 5 2 2 3 2 5 1 7 12 9 5 8 5 2 3 9 6 3 1 1 1 6 8 9 5 3 2 3 4 9 15 5 8 9 5 10
28 28 26 23 27 30 38 36 34 32 30 7 6 2 2 5 6 5 8 5 9 10 3 3 3 4 3 3 4 6 7 5 5 2 10 10 7 4 3 4 8 7 2 5 5 5 8
28 26 21 18 25 27 37 35 34 31 30 10 3 8 2 4 3 6 5 7 6 5 4 4 6 2 2 4 3 4 5 4 6 8 6 9 9 15 10 7 9 8 4 1 6 2 4
20 19 20 22 22 19 38 35 33 32 29 12 4 8 2 3 3 6 5 5 4 4 5 4 5 3 7 8 5 4 4 7 3 4 9 11 8 6 7 8 14 6 3 6 4 1 3
18 15 21 20 24 17 38 35 33 31 30 16 3 7 3 1 1 2 3 2 0 7 6 3 3 5 5 4 2 3 2 2 6 5 3 5 7 7 11 7 2 2 1 1 1 2 4
Wind_Direction
354 352 347 280 213 216 216 213 217 220 223 224 219 226 245 265 274 290 308 314 323 322 324 328 326 323 334 273 251 158 149 146 128 147 168 161 147 149 185 216 184 221 264 247 283 251 245
353 354 351 354 218 211 215 214 212 216 217 220 215 219 232 246 270 278 293 305 316 316 321 323 320 329 301 265 109 142 140 127 178 143 155 148 174 157 232 235 176 302 295 280 281 265 247
351 349 353 0 9 214 213 213 212 212 213 214 216 213 232 231 257 278 287 295 306 310 313 314 310 352 331 241 354 140 143 179 172 162 148 195 135 127 136 290 353 328 320 317 231 220 237
345 343 350 356 3 20 225 213 215 215 212 212 215 212 225 235 236 267 284 293 299 304 307 299 297 72 244 343 306 151 137 56 135 185 130 196 154 114 132 288 16 346 45 339 227 154 187
320 340 348 351 355 4 15 279 211 214 212 210 214 212 222 226 237 253 276 287 291 294 284 273 117 148 268 351 176 208 145 138 117 57 18 44 99 111 45 94 5 4 244 220 311 197 124
312 319 345 357 350 3 5 3 351 217 212 212 213 210 221 221 233 254 283 290 276 318 153 130 343 352 242 228 166 138 100 131 122 97 53 62 48 91 44 113 222 213 233 238 255 245 186
295 297 314 330 347 356 1 2 360 5 223 213 211 209 209 212 222 256 343 16 27 332 260 192 193 225 158 100 11 49 147 119 110 83 159 237 135 207 211 190 106 112 232 275 269 275 274
290 301 299 307 321 341 351 352 353 1 5 346 209 203 201 198 196 183 111 199 263 183 303 221 232 268 191 174 117 213 130 143 153 175 131 65 242 221 168 173 208 250 270 271 277 313 282
275 279 286 296 299 316 335 338 348 351 360 355 12 202 197 181 153 141 201 215 72 345 263 283 182 183 197 151 210 201 147 152 160 157 178 167 260 90 155 163 159 218 198 220 235 319 241
267 270 276 280 295 294 307 325 333 334 350 351 353 16 197 135 135 157 222 177 152 103 43 261 213 237 123 154 240 47 187 147 195 193 159 240 289 163 179 190 140 252 207 141 75 45 261
263 260 259 267 264 273 269 291 315 324 338 347 344 331 155 165 138 158 143 130 145 71 293 131 176 334 109 158 114 357 192 56 173 175 125 230 168 175 177 196 167 224 81 106 84 96 5
253 250 257 253 260 257 266 276 285 324 337 341 332 326 193 138 96 152 138 120 79 62 248 201 101 126 108 77 47 141 144 71 125 101 20 259 2 219 186 69 51 146 75 42 48 67 17
243 240 246 248 250 252 255 257 276 279 320 324 322 330 188 159 196 150 141 85 77 209 333 235 170 136 124 152 132 160 169 176 155 101 243 347 200 147 147 87 27 78 80 329 353 9 213
240 234 230 234 244 234 244 243 260 274 288 316 320 311 199 191 157 144 130 79 208 224 219 204 112 95 177 161 187 161 135 185 209 105 118 158 298 167 170 182 176 182 164 164 204 205 248
246 236 228 220 235 230 231 230 251 264 265 302 320 265 181 178 151 149 122 173 206 201 170 151 98 111 220 208 160 153 191 209 207 173 178 142 278 339 55 356 96 193 195 184 103 33 49
253 240 226 217 221 223 224 223 231 245 247 270 311 243 204 149 126 152 125 221 205 203 160 137 153 160 182 200 162 185 182 204 227 191 163 207 29 358 327 323 29 172 160 83 349 156 244
255 244 229 223 211 218 215 217 214 228 235 225 231 208 150 140 116 163 197 218 213 211 155 154 199 146 159 175 186 189 198 252 226 181 171 140 123 302 31 203 189 153 241 229 182 161 174
255 251 231 221 213 204 210 212 207 226 233 152 249 200 158 161 131 200 205 167 170 208 140 67 34 181 168 150 190 215 209 237 11 184 161 191 128 166 201 270 343 315 215 166 138 252 250
262 257 235 224 211 207 195 202 202 216 204 136 225 116 222 187 201 185 206 173 195 159 157 130 207 299 268 152 64 203 182 25 359 179 150 183 245 44 347 16 11 226 201 209 112 87 204
262 264 262 223 210 204 202 189 193 208 202 128 127 163 264 211 129 191 181 204 197 205 163 157 166 165 106 282 159 289 155 26 10 99 54 84 125 164 191 140 124 189 207 196 157 147 186
257 258 270 228 210 202 196 190 188 196 205 149 194 224 199 193 210 190 176 188 183 165 199 157 174 158 148 191 75 209 218 249 21 67 55 134 193 152 263 239 209 235 211 190 195 215 214
253 257 261 277 210 203 194 189 186 183 202 219 170 180 161 318 151 184 188 190 191 179 159 198 148 194 183 183 186 179 146 159 235 51 168 268 177 109 298 330 236 263 240 204 221 250 248
255 254 264 234 234 200 194 191 187 181 191 191 161 221 126 197 184 190 200 195 197 152 214 175 177 160 188 221 178 163 160 179 197 159 195 119 126 79 270 332 358 286 223 216 200 192 161
260 246 265 255 274 198 192 192 188 185 184 170 149 142 136 244 195 204 195 201 182 194 165 170 166 185 184 111 84 58 80 250 203 203 152 147 131 162 244 21 218 244 69 172 219 234 218
257 255 249 257 259 201 191 191 189 188 180 154 140 158 165 195 220 211 173 204 194 200 208 186 230 146 141 112 81 82 198 290 229 204 191 159 152 199 189 202 301 304 221 184 177 271 207
259 257 250 239 256 221 187 185 187 183 184 150 172 142 162 129 227 163 180 167 186 197 129 175 108 120 140 117 152 183 199 173 209 227 199 179 211 200 163 192 218 236 256 258 174 339 322
252 245 243 248 229 235 187 180 183 183 185 157 135 167 137 165 235 151 169 176 141 138 157 132 151 99 92 175 196 170 218 188 171 174 155 194 197 220 225 247 272 253 277 248 73 211 318
258 238 259 245 229 276 184 180 181 181 179 153 132 168 173 129 247 166 185 138 119 148 144 170 104 177 178 205 178 201 145 218 125 193 164 179 179 184 212 235 253 203 53 173 183 247 251
257 268 249 225 223 264 184 178 175 174 169 145 134 153 113 150 96 52 284 266 328 175 138 188 146 158 167 168 171 117 103 178 167 225 267 207 197 183 193 209 272 243 235 168 85 320 292